Weather History for Dyersburg, TN

Change the Weather History Date:

Monday, February 11, 2013

  Actual Average Record
Temperature  
Mean Temperature 47 °F -  
Max Temperature 55 °F 48 °F 73 °F (1999)
Min Temperature 39 °F 33 °F 10 °F (2011)
Degree Days  
Heating Degree Days 18    
Moisture  
Dew Point 29 °F    
Average Humidity 50    
Maximum Humidity 67    
Minimum Humidity 40    
Precipitation  
Precipitation 0.00 in - - ()
Sea Level Pressure  
Sea Level Pressure 30.13 in    
Wind  
Wind Speed 8 mph (WSW)    
Max Wind Speed 14 mph    
Max Gust Speed 20 mph    
Visibility 10 miles    
Events      
Averages and records for this station are not official NWS values.
T = Trace of Precipitation, MM = Missing Value Source: NWS Daily Summary

Daily Weather History Graph

Daily Weather History Graph

Search for Another Location

Airport:

Trip Planner

Search our weather history database for the weather conditions in past years. The results will help you decide how hot, cold, wet, or windy it might be!

Date:

Astronomy

Feb. 11, 2013 Rise Set
Actual Time 6:48 AM CST 5:35 PM CST
Civil Twilight 6:22 AM CST 6:01 PM CST
Nautical Twilight 5:52 AM CST 6:31 PM CST
Astronomical Twilight 5:22 AM CST 7:01 PM CST
Moon 7:17 AM CST (2/11) 7:26 PM CST (2/11)
Length of Visible Light 11h 39m
Length of Day
10h 46m
Waxing Crescent, 3% of the Moon is Illuminated
Feb 11
Waxing Crescent
Feb 17
First Quarter
Feb 25
Full
Mar 4
Last Quarter
Mar 11
New

Hourly Weather History & Observations

Time (CST) Temp. Windchill Dew Point Humidity Pressure Visibility Wind Dir Wind Speed Gust Speed Precip Events Conditions
12:15 AM 55.4 °F - 44.6 °F 67% 29.95 in 10.0 mi WSW 13.8 mph - N/A   Clear
12:35 AM 53.6 °F - 42.8 °F 67% 29.96 in 10.0 mi WSW 10.4 mph - N/A   Clear
1:15 AM 51.8 °F - 37.4 °F 58% 29.98 in 10.0 mi WSW 10.4 mph - N/A   Clear
1:35 AM 51.8 °F - 35.6 °F 54% 29.99 in 10.0 mi West 10.4 mph - N/A   Clear
1:55 AM 51.8 °F - 33.8 °F 50% 30.00 in 10.0 mi West 12.7 mph - N/A   Clear
2:16 AM 51.8 °F - 32.0 °F 47% 30.00 in 10.0 mi West 12.7 mph - N/A   Clear
2:35 AM 48.2 °F - 30.2 °F 50% 30.01 in 10.0 mi West 8.1 mph - N/A   Clear
3:35 AM 48.2 °F - 28.4 °F 46% 30.03 in 10.0 mi West 12.7 mph 17.3 mph N/A   Clear
3:55 AM 46.4 °F 40.7 °F 28.4 °F 50% 30.04 in 10.0 mi West 12.7 mph - N/A   Clear
4:15 AM 46.4 °F 40.4 °F 28.4 °F 50% 30.06 in 10.0 mi West 13.8 mph 19.6 mph N/A   Clear
4:36 AM 46.4 °F 40.7 °F 26.6 °F 46% 30.06 in 10.0 mi West 12.7 mph - N/A   Clear
4:55 AM 44.6 °F 38.8 °F 26.6 °F 49% 30.06 in 10.0 mi West 11.5 mph 18.4 mph N/A   Clear
5:35 AM 44.6 °F 38.8 °F 26.6 °F 49% 30.09 in 10.0 mi West 11.5 mph 16.1 mph N/A   Clear
5:56 AM 42.8 °F 37.0 °F 26.6 °F 53% 30.10 in 10.0 mi West 10.4 mph - N/A   Clear
6:15 AM 42.8 °F 37.5 °F 24.8 °F 49% 30.11 in 10.0 mi West 9.2 mph - N/A   Clear
6:35 AM 42.8 °F 39.3 °F 24.8 °F 49% 30.11 in 10.0 mi WNW 5.8 mph - N/A   Clear
6:56 AM 41.0 °F 38.0 °F 24.8 °F 53% 30.12 in 10.0 mi West 4.6 mph - N/A   Clear
7:15 AM 39.2 °F - 24.8 °F 56% 30.12 in 10.0 mi Calm Calm - N/A   Clear
7:35 AM 39.2 °F 37.0 °F 24.8 °F 56% 30.14 in 10.0 mi WSW 3.5 mph - N/A   Clear
8:15 AM 41.0 °F 37.1 °F 26.6 °F 57% 30.15 in 10.0 mi WSW 5.8 mph - N/A   Clear
8:35 AM 42.8 °F 39.3 °F 26.6 °F 53% 30.17 in 10.0 mi SW 5.8 mph - N/A   Clear
9:15 AM 44.6 °F 40.7 °F 26.6 °F 49% 30.17 in 10.0 mi WSW 6.9 mph - N/A   Clear
9:35 AM 44.6 °F 40.7 °F 26.6 °F 49% 30.18 in 10.0 mi WSW 6.9 mph - N/A   Clear
9:55 AM 44.6 °F 41.4 °F 26.6 °F 49% 30.18 in 10.0 mi West 5.8 mph - N/A   Clear
10:16 AM 46.4 °F 41.5 °F 26.6 °F 46% 30.18 in 10.0 mi West 10.4 mph - N/A   Clear
10:35 AM 48.2 °F - 26.6 °F 43% 30.20 in 10.0 mi West 8.1 mph - N/A   Clear
10:55 AM 48.2 °F - 26.6 °F 43% 30.20 in 10.0 mi WSW 10.4 mph - N/A   Clear
11:35 AM 48.2 °F - 26.6 °F 43% 30.19 in 10.0 mi West 6.9 mph - N/A   Clear
11:55 AM 48.2 °F - 28.4 °F 46% 30.19 in 10.0 mi West 6.9 mph - N/A   Clear
12:15 PM 50.0 °F - 28.4 °F 43% 30.19 in 10.0 mi West 6.9 mph - N/A   Clear
12:36 PM 48.2 °F - 28.4 °F 46% 30.19 in 10.0 mi WSW 9.2 mph - N/A   Clear
12:55 PM 50.0 °F - 26.6 °F 40% 30.17 in 10.0 mi West 8.1 mph - N/A   Clear
1:15 PM 51.8 °F - 28.4 °F 41% 30.17 in 10.0 mi West 9.2 mph - N/A   Clear
1:55 PM 51.8 °F - 28.4 °F 41% 30.16 in 10.0 mi West 6.9 mph - N/A   Clear
2:15 PM 51.8 °F - 30.2 °F 44% 30.15 in 10.0 mi WSW 5.8 mph - N/A   Clear
2:35 PM 53.6 °F - 30.2 °F 41% 30.15 in 10.0 mi West 8.1 mph - N/A   Clear
2:56 PM 53.6 °F - 30.2 °F 41% 30.15 in 10.0 mi WSW 10.4 mph - N/A   Clear
3:15 PM 53.6 °F - 30.2 °F 41% 30.14 in 10.0 mi WSW 6.9 mph - N/A   Clear
3:35 PM 51.8 °F - 28.4 °F 41% 30.15 in 10.0 mi West 8.1 mph - N/A   Clear
4:55 PM 50.0 °F - 30.2 °F 47% 30.14 in 10.0 mi SW 3.5 mph - N/A   Clear
5:15 PM 50.0 °F - 30.2 °F 47% 30.14 in 10.0 mi SW 3.5 mph - N/A   Clear
5:35 PM 48.2 °F - 28.4 °F 46% 30.14 in 10.0 mi Calm Calm - N/A   Clear
5:55 PM 48.2 °F - 28.4 °F 46% 30.14 in 10.0 mi SSW 3.5 mph - N/A   Clear
6:16 PM 46.4 °F - 28.4 °F 50% 30.14 in 10.0 mi Calm Calm - N/A   Clear
6:35 PM 44.6 °F - 28.4 °F 53% 30.14 in 10.0 mi Calm Calm - N/A   Clear
7:15 PM 46.4 °F - 28.4 °F 50% 30.15 in 10.0 mi Calm Calm - N/A   Clear
7:35 PM 46.4 °F 45.2 °F 28.4 °F 50% 30.16 in 10.0 mi SW 3.5 mph - N/A   Clear
7:55 PM 44.6 °F 43.1 °F 28.4 °F 53% 30.16 in 10.0 mi SW 3.5 mph - N/A   Clear
8:15 PM 44.6 °F 43.1 °F 28.4 °F 53% 30.17 in 10.0 mi SW 3.5 mph - N/A   Clear
8:55 PM 44.6 °F - 28.4 °F 53% 30.17 in 10.0 mi Calm Calm - N/A   Clear
9:15 PM 44.6 °F - 26.6 °F 49% 30.18 in 10.0 mi Calm Calm - N/A   Clear
9:35 PM 42.8 °F - 28.4 °F 57% 30.17 in 9.0 mi Calm Calm - N/A   Clear
10:15 PM 39.2 °F - 26.6 °F 61% 30.17 in 10.0 mi Calm Calm - N/A   Clear
10:35 PM 39.2 °F - 26.6 °F 61% 30.17 in 10.0 mi Calm Calm - N/A   Clear
10:55 PM 39.2 °F - 28.4 °F 65% 30.17 in 10.0 mi Calm Calm - N/A   Clear
11:15 PM 39.2 °F - 26.6 °F 61% 30.17 in 10.0 mi Calm Calm - N/A   Clear
11:35 PM 39.2 °F - 28.4 °F 65% 30.17 in 10.0 mi Calm Calm - N/A   Clear